Location: Ammerl�gen
(47.2167°N, 9.6000°E)
Time: 20:18:46
(UTC+00:00)

DMSP 5D-2 F13 DEB - Pass Details

Date: 27 October 2021
Orbit: 758 x 780 km, 98.7° (Epoch: 03 December)

Event Time Altitude Azimuth Distance (km) Brightness Sun altitude
Exits shadow 17:40:29 17° 49° (NE) 1,866 ? -15.4°
Drops below altitude 10° 17:43:08 10° 18° (NNE) 2,300 ? -15.9°
Sets 17:46:09 0° 359° (N) 3,229 ? -16.4°
